Theta_e
293 292 292 291 291 291 291 290 291 292 291 292 293 293 294 295 295 295 297 298 300 301 301 301 302 303 304 302 303 303 311 309 311 318 319 319 318 316 315 315 313 314 315 315 315 318 324 311 309 312 317 312 312 312
292 292 291 291 291 291 290 290 290 291 292 293 293 294 295 295 295 296 298 298 298 300 302 301 301 302 302 301 300 300 304 312 313 317 320 318 318 316 317 316 311 315 316 319 317 320 317 311 313 312 311 312 312 313
292 291 291 291 291 290 290 290 291 292 292 294 295 295 295 296 296 296 297 298 299 300 300 301 302 301 302 301 300 301 305 306 312 312 314 318 319 317 318 317 312 312 313 315 315 315 314 311 310 311 311 311 310 312
292 292 291 290 290 289 290 291 291 292 293 294 295 296 297 297 297 297 298 298 299 300 301 301 301 302 302 301 300 300 301 301 303 310 313 315 317 314 317 316 316 314 313 313 314 314 312 312 312 311 310 310 310 310
292 291 290 290 289 289 290 291 292 293 294 295 296 297 299 299 298 297 298 299 299 300 303 304 302 302 302 302 301 301 300 300 304 314 315 315 314 313 313 315 316 313 314 316 319 315 315 314 313 312 311 310 309 309
291 290 290 289 290 291 291 292 292 293 294 296 298 300 300 299 298 298 300 298 299 300 301 304 303 304 303 302 302 301 300 302 304 313 315 315 314 314 315 316 315 314 314 315 315 314 314 314 312 312 312 311 310 310
290 290 289 289 290 291 292 292 293 294 295 297 300 300 300 299 299 299 299 299 299 300 301 303 302 303 303 305 304 304 303 304 307 313 315 316 316 313 315 317 316 314 313 313 313 312 313 313 313 312 311 311 309 309
290 289 289 290 291 291 292 292 294 295 297 299 300 299 299 298 298 298 301 300 299 300 301 304 304 304 306 309 309 307 307 307 310 313 315 316 315 314 316 315 315 314 313 313 312 312 313 314 312 312 311 311 310 309
288 289 290 291 291 292 292 293 294 296 299 299 300 299 299 298 295 298 300 299 300 301 303 303 304 306 308 310 310 311 309 310 308 312 315 317 317 318 315 314 315 315 315 315 314 314 314 313 313 313 312 311 310 309
289 290 291 291 291 292 294 294 295 299 299 300 299 299 295 296 299 299 299 300 301 302 304 304 304 307 309 310 312 312 313 313 313 312 314 316 318 317 316 314 315 314 314 314 314 315 314 314 313 313 312 312 311 310
290 291 291 291 292 294 295 295 297 299 298 301 296 297 297 299 300 299 298 300 302 303 303 303 304 305 306 311 312 313 314 314 315 315 317 317 319 317 315 316 316 315 314 315 315 315 315 314 314 313 313 312 310 309
291 291 291 292 293 295 296 296 298 299 299 299 298 298 300 299 299 302 303 303 303 303 303 303 303 304 305 305 309 311 314 315 315 315 318 317 316 316 316 316 315 315 315 315 314 314 314 314 313 313 313 311 310 310
291 291 292 293 294 296 297 297 298 300 299 299 300 296 300 299 304 304 305 304 304 303 303 304 304 304 306 302 303 312 314 314 314 317 318 316 315 314 316 315 315 315 316 316 315 314 313 313 313 313 312 311 310 310
291 292 293 294 296 298 296 296 298 299 299 297 301 301 304 305 304 304 303 303 302 303 304 304 305 305 306 305 303 312 315 315 317 319 315 315 314 315 315 317 316 316 317 317 317 316 316 315 314 314 313 312 311 311
293 294 294 296 298 298 296 298 299 300 298 299 302 304 304 305 304 305 304 304 303 303 305 305 306 308 308 308 305 310 314 317 315 313 317 315 315 315 315 316 316 316 317 318 317 317 316 315 316 314 313 312 311 312
294 295 296 298 300 298 298 298 300 300 301 302 303 305 304 305 307 307 305 306 305 304 305 306 307 308 309 310 312 313 314 315 314 314 317 318 317 315 315 317 316 316 316 316 315 314 314 314 313 313 312 311 310 309
297 299 298 298 300 299 299 299 300 297 301 303 304 304 304 304 307 306 305 304 306 306 309 308 310 309 308 308 312 313 314 315 318 319 317 313 312 314 315 315 315 313 313 313 313 313 312 312 310 311 312 310 309 307
299 299 299 299 300 299 299 299 295 297 300 303 305 307 306 305 306 306 305 306 307 306 307 308 307 308 311 309 311 311 315 317 317 318 315 309 308 310 310 312 312 309 310 311 312 311 310 310 310 311 309 308 307 306
299 300 300 300 300 298 295 293 297 303 304 304 305 306 306 307 306 306 305 307 307 306 307 307 306 309 311 309 311 313 316 316 316 316 314 308 307 309 309 309 308 308 309 310 310 309 308 308 309 309 309 307 307 305
299 301 300 300 300 295 296 298 301 304 306 306 307 307 307 306 305 308 308 308 308 308 308 309 310 308 309 311 312 311 312 313 315 319 318 313 310 308 309 308 308 308 308 307 308 307 308 309 308 308 307 307 307 307
301 302 301 301 300 300 301 303 305 305 305 305 305 306 307 306 308 308 308 308 309 309 309 310 310 311 310 311 311 311 311 310 311 314 317 317 312 309 308 307 307 307 308 308 310 308 309 309 307 306 306 308 308 306
300 301 299 299 300 300 300 300 305 305 305 306 308 307 307 308 309 310 310 309 310 310 310 311 308 307 309 310 311 310 309 308 307 308 306 307 311 310 309 308 307 309 309 309 309 310 310 307 307 307 308 307 306 306
300 300 301 302 304 303 300 298 305 305 307 305 306 306 306 306 307 306 308 309 310 311 310 309 307 307 309 308 308 307 306 306 307 307 308 308 309 308 308 307 308 311 311 309 309 309 307 305 306 304 304 305 303 300
299 300 302 302 303 302 300 301 303 305 304 305 305 306 306 305 305 306 307 308 309 309 310 308 308 310 309 307 307 308 306 305 305 306 307 308 310 309 307 308 308 308 308 308 307 305 303 303 302 302 302 300 297 297
303 299 303 302 301 303 304 304 304 304 305 305 306 307 303 302 305 307 306 305 308 310 310 308 308 310 311 311 308 307 304 303 307 309 308 308 308 307 306 306 306 306 306 306 301 299 299 300 300 298 298 297 297 297
302 299 303 302 300 304 303 305 303 304 306 308 307 305 304 303 307 310 307 303 304 307 307 307 308 309 308 306 303 303 303 303 305 308 307 307 306 307 307 306 305 303 304 303 298 297 297 297 297 297 297 297 298 298
302 299 298 297 299 300 301 301 302 304 305 306 306 304 303 309 310 303 298 295 298 298 301 304 305 305 304 301 300 300 301 302 305 305 304 305 305 305 305 306 305 303 302 300 299 299 299 298 298 298 298 298 298 299
297 298 300 297 298 298 300 300 301 303 305 301 302 306 306 304 298 291 293 291 290 295 298 300 302 302 300 298 297 297 297 300 301 300 299 299 298 300 301 302 301 300 300 299 300 300 300 300 299 299 298 298 298 298
297 296 297 298 297 297 297 297 298 298 296 298 301 297 290 286 284 285 288 289 294 296 297 297 296 296 296 294 295 296 298 300 302 302 301 302 301 296 297 298 299 299 299 299 299 299 299 300 299 299 299 299 299 298
295 295 297 296 296 296 295 293 294 294 293 289 287 286 285 284 282 281 282 287 291 291 291 294 295 295 295 294 293 291 292 295 299 299 301 300 297 294 296 297 298 298 299 300 299 298 298 299 298 298 298 297 297 297
293 296 296 296 295 294 293 292 292 291 290 289 288 288 288 287 284 281 280 281 286 289 290 290 289 288 289 289 292 294 292 290 292 294 295 294 295 295 297 297 298 298 299 299 298 298 298 297 297 297 296 295 295 294
293 295 297 296 295 294 295 295 295 293 292 290 289 290 290 287 285 283 279 279 280 283 286 287 287 287 286 286 286 286 287 288 289 291 293 293 294 294 295 296 297 299 299 299 298 296 296 295 295 294 294 293 293 293
293 295 296 296 296 296 295 297 296 295 293 292 289 288 286 285 282 281 280 279 278 278 280 284 285 285 286 286 286 286 286 286 286 287 288 289 290 291 292 293 293 293 294 294 293 294 293 293 293 292 292 293 293 293
Wind_Speed
25 26 26 26 25 27 26 28 28 29 31 31 31 31 31 30 29 29 29 26 23 4 13 22 17 13 4 2 2 8 4 5 4 6 6 3 4 6 5 11 13 9 9 5 6 5 5 9 9 4 4 3 1 6
28 28 29 29 28 27 30 29 30 31 33 35 34 35 33 32 31 30 27 27 28 13 9 13 19 13 8 10 2 2 7 7 1 3 2 4 4 4 8 7 4 6 6 5 8 5 2 11 3 7 2 3 4 7
29 29 29 28 27 29 30 31 32 34 36 37 37 35 34 35 34 35 31 25 20 8 8 19 18 24 19 15 13 3 3 7 4 7 3 3 2 4 6 4 6 6 8 3 4 5 8 7 10 4 6 2 4 8
29 28 28 29 29 32 32 32 34 36 37 36 35 34 32 34 36 37 34 28 23 4 5 15 19 15 16 21 23 15 5 10 12 7 5 3 4 2 3 3 5 2 11 8 3 6 4 8 11 9 10 6 5 8
32 30 30 30 32 32 32 34 36 36 36 35 31 33 28 30 34 36 33 30 29 14 3 6 14 18 16 23 24 18 5 5 3 3 6 8 0 3 2 2 5 7 7 5 3 7 2 5 3 11 12 13 10 10
31 31 30 32 32 32 34 36 35 35 33 29 29 21 25 32 35 31 7 30 31 25 4 4 2 6 13 21 19 19 10 5 3 3 6 8 2 3 3 5 7 13 8 5 3 4 1 4 3 4 9 13 15 11
30 30 32 32 33 34 35 35 34 32 28 27 18 17 20 35 38 19 3 8 37 24 2 4 6 7 14 19 13 7 8 3 3 2 6 11 7 3 6 9 8 9 9 7 5 3 3 5 2 6 4 11 16 16
32 32 33 33 34 35 35 32 31 29 25 17 16 17 24 32 31 17 6 12 37 9 6 4 4 4 14 5 6 8 6 4 3 3 6 10 4 4 7 14 16 9 9 7 8 10 8 6 2 7 6 10 15 14
33 33 34 35 34 34 32 30 28 25 18 20 19 21 24 16 4 10 7 31 31 11 5 5 5 5 8 9 6 8 5 4 1 3 7 4 7 7 9 15 16 19 17 14 13 13 13 12 11 9 9 11 15 15
34 35 36 34 33 32 30 26 26 18 21 22 23 6 2 14 20 27 13 7 5 4 5 7 10 6 3 8 7 5 4 5 3 5 5 9 14 19 15 13 13 15 14 13 12 13 12 13 12 13 13 12 13 15
37 35 34 33 33 30 28 26 22 22 25 17 3 2 11 44 13 4 4 5 4 5 5 8 12 8 3 3 5 6 4 4 3 6 6 6 11 20 22 22 17 16 14 14 15 13 13 13 10 12 12 14 16 18
35 35 35 34 32 29 28 29 24 29 8 13 10 13 16 3 3 5 6 5 7 9 8 13 13 11 3 2 1 3 4 6 6 8 5 6 11 16 18 23 24 22 20 20 19 15 16 14 10 10 12 15 18 19
38 37 35 33 31 31 33 34 29 26 26 15 4 3 3 4 8 9 13 7 8 6 10 10 14 12 5 1 3 5 8 6 1 4 4 4 7 10 14 15 20 22 20 22 23 23 21 19 16 12 13 17 20 19
39 36 36 34 33 32 39 38 31 35 14 3 5 7 7 8 7 6 11 11 10 8 9 11 12 9 5 4 3 4 6 3 5 7 12 5 8 9 11 12 17 19 19 21 22 21 20 20 18 16 18 19 23 21
39 36 36 37 34 39 44 40 40 31 5 4 5 7 9 7 6 10 9 14 13 11 9 11 10 6 7 4 4 3 5 6 8 10 5 3 8 12 13 13 16 16 12 13 15 16 15 20 20 15 20 18 24 21
38 35 39 37 40 45 45 41 40 18 5 6 7 6 9 11 6 7 10 11 12 11 11 12 7 5 7 5 6 8 4 6 5 4 6 6 8 12 14 11 12 11 12 11 14 18 18 16 18 21 21 22 24 30
34 24 39 47 46 49 46 33 20 5 5 6 7 10 8 11 9 8 9 12 12 13 9 11 9 8 4 6 6 6 5 3 4 2 1 1 4 7 9 9 4 7 9 13 14 16 17 17 18 20 16 23 22 21
27 31 37 48 49 45 32 22 5 5 8 10 11 11 11 8 11 10 11 12 12 13 14 13 8 11 8 9 13 9 6 6 10 8 3 3 5 6 6 9 7 9 11 14 15 15 16 17 17 13 21 22 20 18
28 35 41 49 51 14 4 6 6 6 10 9 11 11 11 9 12 13 12 12 12 12 12 12 13 11 12 10 9 5 8 8 7 8 3 4 6 7 6 6 6 9 12 13 14 14 16 18 16 19 21 22 18 19
42 39 48 51 48 5 5 4 10 6 9 9 12 14 12 11 11 11 11 11 13 11 12 19 16 12 9 10 11 11 9 8 7 7 7 5 5 6 6 7 7 10 11 12 14 16 16 16 18 18 20 20 17 18
42 31 50 52 17 6 4 6 7 5 4 7 12 13 12 12 11 13 12 11 12 14 13 10 12 12 14 13 8 7 6 6 7 8 9 6 4 7 7 9 10 11 10 10 8 10 12 12 15 17 17 16 17 19
26 47 32 19 3 5 3 2 7 5 3 5 11 12 9 11 11 11 10 13 14 12 11 11 11 10 11 15 14 16 12 13 12 11 10 9 6 7 8 9 10 7 8 10 12 11 13 16 18 18 18 19 19 19
20 19 6 4 4 4 4 1 5 7 5 7 6 10 8 9 10 9 8 10 10 10 12 12 14 19 13 10 11 13 15 12 7 7 11 11 11 11 11 12 11 8 7 12 15 15 16 18 20 22 21 18 20 21
9 4 4 3 4 5 3 3 2 4 5 6 7 6 7 5 5 6 7 11 9 9 11 16 12 12 12 10 8 6 10 10 8 11 14 10 7 8 13 12 12 12 14 16 17 16 17 18 21 19 22 22 21 21
5 7 3 6 2 4 4 4 3 3 4 5 7 5 5 4 5 6 8 8 9 10 10 11 11 12 12 10 7 6 5 8 4 6 11 14 12 12 11 10 10 10 16 18 14 19 18 21 21 22 20 20 20 18
5 5 4 4 2 3 3 4 3 0 2 5 6 2 4 2 6 7 8 5 6 11 11 11 11 10 10 8 3 2 5 9 10 6 10 12 15 11 9 9 8 8 12 17 26 22 19 19 20 20 17 17 17 20
4 4 3 3 3 4 3 2 3 3 6 7 5 6 4 8 7 3 1 2 2 1 8 14 16 9 7 3 1 7 8 11 16 12 9 8 7 10 12 10 9 13 15 23 27 30 28 22 21 19 19 16 17 17
4 2 4 3 3 1 3 3 2 4 3 2 3 8 3 2 3 3 2 8 11 3 8 8 12 16 15 11 12 11 11 16 19 17 15 13 11 12 11 12 16 20 20 21 23 23 24 24 23 21 19 18 16 14
3 2 3 6 3 3 2 2 3 2 1 2 1 3 3 3 5 5 7 14 4 7 7 8 12 19 15 11 15 10 8 10 12 9 10 5 3 9 14 17 17 19 20 20 16 15 15 16 17 16 14 12 11 11
2 2 3 3 3 2 2 2 3 3 2 4 4 5 5 3 14 19 18 16 12 8 11 12 14 16 10 11 10 15 16 10 9 8 7 6 6 13 16 18 20 20 19 20 19 17 15 14 13 12 11 10 9 9
2 1 3 3 3 3 8 7 8 9 9 9 7 6 6 4 6 26 29 26 22 19 17 16 20 20 15 11 7 7 9 18 21 23 25 24 20 19 19 19 19 18 17 17 16 15 14 12 10 11 9 8 7 6
2 2 3 4 3 2 2 2 3 5 4 6 6 5 3 3 5 8 29 28 20 17 21 19 17 17 17 18 21 22 21 20 24 24 25 24 22 20 18 18 17 17 16 16 15 14 12 11 10 8 6 5 4 3
2 4 6 4 3 3 2 1 2 4 5 4 6 6 6 4 6 6 13 24 17 14 15 19 21 21 21 22 22 22 24 24 24 24 22 21 20 18 17 17 15 15 14 13 12 11 9 8 6 4 2 1 2 4
Wind_Direction
254 259 262 262 265 271 269 278 272 272 278 277 276 270 265 258 248 238 240 236 219 242 266 280 282 286 198 159 299 337 262 221 244 227 198 224 159 196 178 166 175 170 173 185 210 207 269 138 146 222 49 91 350 199
255 255 262 262 266 267 277 274 274 277 279 280 274 270 260 249 245 234 237 229 227 238 266 295 264 279 266 182 179 275 289 284 295 284 220 210 170 163 164 180 215 200 192 185 196 209 129 181 52 149 43 72 78 114
255 257 257 260 264 273 274 274 276 280 281 276 272 264 255 248 239 226 222 224 213 243 268 264 256 254 246 198 188 216 292 334 268 1 301 303 234 184 181 194 149 221 174 208 171 210 211 201 225 199 196 67 110 129
250 253 256 263 267 273 273 276 280 282 279 276 271 265 250 239 227 220 213 214 197 173 243 263 266 233 238 186 194 211 229 299 297 285 268 285 280 248 194 141 195 181 165 198 235 238 190 238 224 213 207 205 166 144
254 253 259 262 269 270 273 279 282 280 280 276 268 266 244 220 210 210 208 210 202 208 251 285 292 242 212 205 211 219 202 263 287 240 222 227 284 233 228 227 191 184 169 178 166 135 37 75 118 197 207 198 184 161
249 253 257 265 267 270 276 279 280 280 274 273 273 248 224 206 194 187 198 215 209 217 262 269 232 230 214 198 205 205 197 231 245 277 240 255 91 262 241 225 229 182 197 217 98 94 137 114 136 157 197 196 188 177
247 252 259 262 266 272 277 278 278 274 270 273 251 222 205 185 184 182 181 166 192 198 164 255 262 211 219 188 186 194 183 228 260 262 243 245 211 199 264 250 224 176 210 212 213 176 218 217 229 167 196 184 185 187
247 254 257 261 268 273 275 275 272 263 272 229 220 196 185 178 179 188 230 183 168 148 207 249 251 241 179 160 177 190 178 173 237 265 254 225 196 217 240 227 245 193 193 211 208 209 259 307 251 189 190 179 176 183
250 253 256 263 269 271 271 269 260 266 224 201 188 172 161 173 135 168 201 167 171 183 203 219 224 218 168 198 184 187 160 178 247 242 240 234 217 215 232 221 221 229 237 244 239 242 241 238 236 227 195 194 188 188
248 252 258 263 265 266 263 255 249 232 193 185 159 162 163 165 146 143 154 178 199 227 228 235 212 222 194 188 184 168 201 200 211 224 242 240 246 241 228 230 231 234 239 239 231 236 225 228 223 223 207 205 197 191
251 254 255 258 260 255 247 236 232 195 181 174 118 155 152 139 133 170 167 192 169 199 219 218 229 200 120 251 188 201 180 192 229 194 212 223 230 229 233 240 231 233 237 232 238 239 226 235 225 212 214 200 203 191
251 252 255 256 249 241 233 220 213 188 196 153 124 132 150 117 155 180 183 183 198 199 180 203 208 220 103 297 227 217 220 191 236 156 216 237 226 221 213 225 229 232 229 234 234 233 229 211 213 191 200 198 200 196
252 252 252 245 243 230 217 205 204 181 143 127 123 166 189 168 189 202 183 178 185 187 177 187 194 197 126 53 279 217 200 206 280 215 233 249 240 221 219 215 224 228 227 229 232 222 219 219 215 210 201 195 194 195
250 246 242 240 229 220 204 201 197 165 156 166 164 175 215 187 220 196 201 182 184 194 168 183 176 181 151 180 241 237 201 179 223 222 236 242 223 233 228 217 223 229 225 223 223 225 220 216 222 216 211 194 187 188
243 240 232 226 221 207 199 196 183 165 141 175 205 215 206 234 187 177 187 177 179 192 173 176 172 166 172 222 207 264 188 231 220 242 248 225 231 226 228 229 231 234 233 222 224 222 221 220 220 195 196 197 191 181
234 228 224 214 207 198 192 186 179 188 191 191 226 226 186 195 170 174 181 171 166 188 179 167 171 207 192 209 196 208 224 223 239 231 231 239 235 235 239 234 236 237 229 219 221 221 214 205 200 197 196 201 191 182
219 208 204 202 195 189 184 178 189 175 198 230 208 211 240 189 169 191 178 163 169 196 184 189 185 203 190 222 202 214 219 204 247 32 354 310 287 278 268 268 237 223 218 217 213 209 208 202 195 195 193 193 185 190
197 187 187 187 182 172 182 190 160 190 190 227 218 199 212 202 177 197 188 172 186 197 187 202 230 214 218 221 228 243 264 261 279 276 244 286 294 278 260 260 236 215 213 214 200 191 185 185 187 193 188 182 178 176
184 182 182 182 174 167 145 150 180 204 221 210 210 201 200 205 186 199 197 178 192 205 199 214 231 234 231 233 258 274 226 227 254 277 279 226 257 273 267 243 213 200 189 186 181 179 184 184 176 175 177 173 170 169
201 190 187 184 171 148 133 162 175 216 204 192 197 192 193 197 194 202 200 180 191 213 212 222 226 231 243 234 245 270 275 288 274 276 272 267 267 246 224 195 189 173 162 171 175 168 165 166 169 164 166 169 159 161
183 181 182 165 157 156 165 151 160 179 189 180 186 182 186 190 200 199 204 189 202 221 222 219 227 234 238 258 268 301 305 297 282 294 288 284 231 216 201 205 169 168 168 170 163 158 154 149 146 150 148 146 154 151
124 155 139 150 123 136 109 325 128 118 102 179 168 182 185 190 191 199 199 215 224 222 220 221 232 241 235 233 249 249 282 288 283 267 266 271 214 206 189 191 176 178 180 174 163 160 150 144 138 139 140 138 142 140
106 99 98 119 120 88 89 238 99 176 135 148 168 181 200 196 197 186 217 219 233 223 225 230 234 248 257 266 286 284 270 267 266 259 253 238 237 206 180 182 181 170 176 172 159 144 136 137 141 136 138 135 136 136
122 60 53 59 72 102 139 117 125 110 113 145 164 183 167 161 161 214 238 228 225 217 219 218 222 238 230 233 244 260 262 249 246 255 247 215 191 186 182 176 168 178 180 160 152 140 139 138 141 140 147 145 147 144
54 4 57 86 88 90 92 109 127 154 149 169 162 159 159 168 192 218 226 222 220 216 207 205 205 216 232 239 245 248 233 240 243 244 230 216 178 157 150 151 150 166 166 151 143 139 140 146 152 152 154 154 151 152
75 18 31 38 67 99 122 123 147 151 116 159 205 140 128 163 219 223 207 169 197 199 196 192 196 205 218 224 233 276 267 233 228 230 217 201 188 181 153 152 155 168 178 176 156 148 145 152 153 154 156 161 158 158
94 86 68 27 79 115 120 111 127 175 180 210 179 156 155 221 202 154 81 52 287 288 187 188 186 185 162 131 97 267 232 223 204 191 172 165 166 169 164 161 164 163 166 171 168 162 155 156 156 160 160 162 169 174
83 81 125 129 113 87 130 149 219 231 217 174 198 194 191 97 88 348 339 323 308 282 117 109 143 139 128 135 162 187 195 157 138 129 117 95 98 113 130 139 148 151 158 163 161 159 161 162 162 165 168 169 173 182
83 117 139 90 92 73 69 239 242 215 289 260 186 102 94 56 1 344 315 313 75 139 114 100 95 111 116 116 104 108 130 138 163 153 118 114 101 61 112 127 135 140 140 141 141 146 153 159 163 164 167 171 177 184
99 348 100 82 80 32 34 284 296 326 40 79 101 106 91 84 37 23 14 27 53 60 64 91 94 89 89 90 91 68 65 80 115 121 129 123 109 123 127 132 129 128 129 131 130 128 135 142 146 148 155 160 166 174
350 157 97 68 76 56 68 86 85 83 82 86 100 105 110 133 73 29 23 21 37 53 63 63 62 52 58 53 63 96 78 57 88 104 113 115 117 112 109 110 116 123 124 124 125 127 131 131 137 144 151 154 162 170
36 33 129 105 122 84 37 39 57 66 59 56 44 28 59 61 67 29 8 12 27 39 43 53 60 54 55 66 69 76 85 89 92 98 101 101 98 100 104 107 109 110 109 106 108 111 112 114 114 114 123 137 158 179
78 66 81 106 128 125 28 80 111 73 46 52 49 37 31 49 66 20 7 16 21 17 18 44 59 62 61 65 67 68 72 77 80 82 90 93 92 90 90 90 92 94 97 96 95 94 95 97 96 97 86 359 293 287